Flag for Estonia Weather past 2 weeks in Narva, Estonia

Now
58 °F

Overcast.


Feels Like: 58 °F
Forecast: 53 / 62 °F
Wind: 3 mph from Southeast

Location: Narva

Current Time: Sep 21, 2014 at 10:04:06 PM

Latest Report: Sep 21, 2014 at 9:00 PM


Visibility: 13 mi

Pressure: 29.75 "Hg

Humidity: 67%

Dew point: 47 °F

Location of NarvaLocation

Historic Weather in Narva — Graph

°F

Narva temperature yesterday

Maximum temperature yesterday: 65 °F (at 4:00 PM)
Minimum temperature yesterday: 42 °F (at 6:00 AM)
Average temperature yesterday: 54 °F

Past Weeks' High & Low Weather Summary

 TemperatureHumidityPressure
High72 °F (Sep 11, 4:00 PM)100% (Sep 7, 2:00 AM)30.47 "Hg (Sep 7, 2:00 AM)
Low33 °F (Sep 14, 6:00 AM)44% (Sep 20, 4:00 PM)29.77 "Hg (Sep 21, 8:00 PM)
Average55 °F84%30.22 "Hg
* Reported Sep 6 8:00 PM — Sep 21 8:00 PM, Narva, Weather by CustomWeather, © 2014

Note: Actual official high and low records may vary slightly from our data, if they occured in-between our weather recording intervals... More about our weather records

Advertising

Narva weather history for previous 24 hours

 ConditionsComfort  
Time TempWeatherWind HumidityBarometerVisibility
8:00 PM
Sep 21
58 °FOvercast.3 mph64%29.77 "Hg12 mi
7:00 PM59 °FOvercast.2 mph62%29.78 "Hg12 mi
6:00 PM61 °FScattered clouds.5 mph53%29.79 "Hg12 mi
5:00 PM64 °FSunny.6 mph47%29.80 "Hg12 mi
4:00 PM65 °FSunny.3 mph49%29.81 "Hg12 mi
3:00 PM65 °FSunny.5 mph46%29.83 "Hg12 mi
2:00 PM64 °FSunny.5 mph49%29.86 "Hg12 mi
1:00 PM63 °FSunny.6 mph55%29.87 "Hg12 mi
12:00 PM61 °FSunny.5 mph63%29.88 "Hg12 mi
11:00 AM58 °FSunny.5 mph73%29.90 "Hg12 mi
10:00 AM55 °FSunny.5 mph83%29.90 "Hg12 mi
9:00 AM51 °FSunny.3 mph91%29.91 "Hg11 mi
8:00 AM47 °FSunny.3 mph95%29.92 "Hg7 mi
7:00 AM47 °FFog.2 mph95%29.93 "Hg6 mi
6:00 AM47 °FPassing clouds.2 mph94%29.93 "Hg7 mi
5:00 AM47 °FFog.2 mph97%29.94 "Hg5 mi
4:00 AM47 °FClear.2 mph95%29.96 "Hg7 mi
3:00 AM48 °FClear.2 mph92%29.96 "Hg10 mi
2:00 AM48 °FClear.2 mph90%29.97 "Hg12 mi
1:00 AM48 °FClear.2 mph87%29.98 "Hg12 mi
12:00 AM50 °FClear.3 mph80%29.99 "Hg12 mi
11:00 PM
Sep 20
53 °FClear.3 mph71%30.00 "Hg12 mi
10:00 PM53 °FClear.3 mph72%30.01 "Hg12 mi
Weather by CustomWeather, © 2014

See weather overviewHow to use our weather pages